| time (UTC) | temp C | wind direction | speed KPH | gust KPH | rain 1hr cm | rain 24hr cm | rain mn cm | humidity % | barometer mb |
| 20260505052007 | 10 | 346 | 0.0 | 0.0 | 0.00 | 0.10 | 0.10 | 97 | 1014.4 |
| 20260505051002 | 9 | 346 | 0.0 | 0.0 | 0.00 | 0.10 | 0.10 | 97 | 1013.9 |
| 20260505041000 | 9 | 347 | 0.0 | 0.0 | 0.00 | 0.10 | 0.10 | 97 | 1013.7 |
| 20260505040000 | 9 | 340 | 0.0 | 0.0 | 0.00 | 0.10 | 0.10 | 97 | 1013.3 |
| 20260505034959 | 9 | 340 | 0.0 | 0.0 | 0.00 | 0.10 | 0.10 | 97 | 1013.5 |
| 20260505033958 | 9 | 335 | 0.0 | 0.0 | 0.00 | 0.10 | 0.10 | 97 | 1013.6 |
| 20260505032953 | 9 | 347 | 0.0 | 0.0 | 0.00 | 0.10 | 0.10 | 96 | 1013.3 |
| 20260505031952 | 9 | 347 | 0.0 | 0.0 | 0.00 | 0.10 | 0.10 | 96 | 1013.5 |
| 20260505030952 | 10 | 348 | 0.0 | 0.0 | 0.00 | 0.10 | 0.10 | 96 | 1013.3 |
| 20260505025949 | 9 | 338 | 0.0 | 0.0 | 0.00 | 0.10 | 0.10 | 96 | 1012.9 |
| 20260505024945 | 10 | 343 | 0.0 | 0.0 | 0.00 | 0.10 | 0.10 | 96 | 1012.9 |
| 20260505023945 | 9 | 346 | 0.0 | 0.0 | 0.00 | 0.10 | 0.10 | 97 | 1013.0 |
| 20260505022945 | 10 | 347 | 0.0 | 0.0 | 0.00 | 0.10 | 0.10 | 96 | 1012.8 |
| 20260505021940 | 10 | 343 | 0.0 | 0.0 | 0.00 | 0.10 | 0.10 | 96 | 1012.4 |
| 20260505020938 | 10 | 336 | 0.0 | 0.0 | 0.00 | 0.10 | 0.10 | 96 | 1012.8 |
| 20260505015936 | 10 | 343 | 0.0 | 0.0 | 0.00 | 0.10 | 0.10 | 96 | 1012.6 |
| 20260505014931 | 10 | 340 | 0.0 | 1.6 | 0.00 | 0.10 | 0.10 | 96 | 1012.6 |
| 20260505013930 | 10 | 311 | 1.6 | 1.6 | 0.00 | 0.10 | 0.10 | 97 | 1012.5 |
| 20260505012925 | 10 | 340 | 0.0 | 0.0 | 0.00 | 0.10 | 0.10 | 97 | 1012.9 |
| 20260505011925 | 10 | 343 | 0.0 | 0.0 | 0.00 | 0.10 | 0.10 | 97 | 1012.9 |
| 20260505010924 | 10 | 353 | 0.0 | 0.0 | 0.00 | 0.10 | 0.10 | 96 | 1012.9 |
| 20260505005922 | 10 | 347 | 0.0 | 0.0 | 0.00 | 0.10 | 0.10 | 95 | 1012.9 |
| 20260505004922 | 10 | 347 | 0.0 | 0.0 | 0.00 | 0.10 | 0.10 | 93 | 1012.8 |
| 20260505003921 | 11 | 21 | 1.6 | 1.6 | 0.18 | 0.10 | 0.10 | 89 | 1012.5 |
| 20260505002920 | 11 | 289 | 1.6 | 1.6 | 0.00 | 0.08 | 0.08 | 84 | 1012.5 |
| 20260505001915 | 12 | 9 | 1.6 | 1.6 | 0.00 | 0.05 | 0.05 | 77 | 1012.3 |
| 20260505000910 | 13 | 289 | 1.6 | 3.2 | 0.18 | 0.05 | 0.05 | 62 | 1012.4 |
| 20260504235910 | 15 | 268 | 8.0 | 9.7 | 0.00 | 0.03 | 0.03 | 55 | 1012.2 |
| 20260504234909 | 16 | 226 | 1.6 | 1.6 | 0.00 | 0.03 | 0.03 | 46 | 1011.5 |
| 20260504233909 | 16 | 340 | 0.0 | 0.0 | 0.00 | 0.03 | 0.03 | 46 | 1011.6 |
| 20260504232907 | 17 | 301 | 1.6 | 1.6 | 0.00 | 0.03 | 0.03 | 47 | 1011.4 |
| 20260504231907 | 17 | 346 | 0.0 | 0.0 | 0.00 | 0.03 | 0.03 | 48 | 1011.1 |
| 20260504230906 | 17 | 352 | 1.6 | 3.2 | 0.00 | 0.03 | 0.03 | 42 | 1011.0 |
| 20260504225902 | 17 | 340 | 1.6 | 1.6 | 0.00 | 0.03 | 0.03 | 41 | 1010.8 |
| 20260504224902 | 19 | 353 | 1.6 | 1.6 | 0.00 | 0.03 | 0.03 | 40 | 1010.9 |
| 20260504223900 | 18 | 263 | 3.2 | 3.2 | 0.00 | 0.03 | 0.03 | 40 | 1010.7 |
| 20260504222858 | 17 | 335 | 3.2 | 3.2 | 0.00 | 0.03 | 0.03 | 45 | 1010.6 |
| 20260504221854 | 16 | 347 | 0.0 | 0.0 | 0.00 | 0.03 | 0.03 | 48 | 1010.7 |
| 20260504220853 | 17 | 17 | 4.8 | 4.8 | 0.00 | 0.03 | 0.03 | 44 | 1011.0 |
| 20260504215853 | 17 | 42 | 1.6 | 1.6 | 0.00 | 0.03 | 0.03 | 46 | 1011.0 |
| 20260504214851 | 17 | 54 | 1.6 | 3.2 | 0.00 | 0.03 | 0.03 | 48 | 1011.3 |
| 20260504213850 | 16 | 329 | 0.0 | 1.6 | 0.00 | 0.03 | 0.03 | 50 | 1011.4 |
| 20260504212849 | 16 | 348 | 1.6 | 3.2 | 0.00 | 0.03 | 0.03 | 51 | 1011.5 |
| 20260504211849 | 15 | 345 | 1.6 | 1.6 | 0.00 | 0.03 | 0.03 | 58 | 1011.6 |
| 20260504210849 | 13 | 345 | 0.0 | 1.6 | 0.00 | 0.03 | 0.03 | 67 | 1011.4 |
| 20260504205848 | 15 | 21 | 6.4 | 8.0 | 0.13 | 0.03 | 0.03 | 58 | 1011.9 |
| 20260504204844 | 16 | 78 | 3.2 | 4.8 | 0.00 | 0.00 | 0.00 | 47 | 1012.4 |
| 20260504203841 | 16 | 331 | 1.6 | 3.2 | 0.00 | 0.00 | 0.00 | 45 | 1012.2 |
| 20260504202840 | 16 | 14 | 4.8 | 8.0 | 0.00 | 0.00 | 0.00 | 48 | 1012.3 |
| 20260504201839 | 16 | 54 | 3.2 | 4.8 | 0.00 | 0.00 | 0.00 | 50 | 1012.3 |
| 20260504200834 | 15 | 347 | 0.0 | 0.0 | 0.00 | 0.00 | 0.00 | 51 | 1012.3 |
| 20260504195833 | 16 | 357 | 0.0 | 3.2 | 0.00 | 0.00 | 0.00 | 51 | 1012.3 |
| 20260504194831 | 16 | 4 | 4.8 | 4.8 | 0.00 | 0.00 | 0.00 | 43 | 1012.2 |
| 20260504193829 | 16 | 342 | 1.6 | 1.6 | 0.00 | 0.00 | 0.00 | 46 | 1011.9 |
| 20260504192825 | 17 | 55 | 6.4 | 16.1 | 0.00 | 0.00 | 0.00 | 45 | 1011.5 |
| 20260504191821 | 17 | 340 | 1.6 | 3.2 | 0.00 | 0.00 | 0.00 | 49 | 1010.9 |
| 20260504190819 | 17 | 311 | 3.2 | 4.8 | 0.00 | 0.00 | 0.00 | 50 | 1010.9 |
| 20260504185818 | 18 | 350 | 1.6 | 3.2 | 0.00 | 0.00 | 0.00 | 39 | 1010.8 |
| 20260504184817 | 20 | 353 | 3.2 | 3.2 | 0.00 | 0.00 | 0.00 | 31 | 1010.3 |
| 20260504183814 | 21 | 195 | 1.6 | 3.2 | 0.00 | 0.00 | 0.00 | 26 | 1010.3 |
| 20260504182810 | 21 | 344 | 0.0 | 0.0 | 0.00 | 0.00 | 0.00 | 27 | 1010.2 |
| 20260504181810 | 22 | 351 | 3.2 | 3.2 | 0.00 | 0.00 | 0.00 | 25 | 1010.1 |
| 20260504180806 | 22 | 7 | 3.2 | 3.2 | 0.00 | 0.00 | 0.00 | 26 | 1010.1 |
| 20260504175802 | 23 | 338 | 1.6 | 3.2 | 0.00 | 0.00 | 0.00 | 26 | 1010.3 |
| 20260504174802 | 24 | 6 | 3.2 | 4.8 | 0.00 | 0.00 | 0.00 | 24 | 1010.4 |
| 20260504173802 | 23 | 351 | 0.0 | 0.0 | 0.00 | 0.00 | 0.00 | 23 | 1010.3 |
| 20260504172802 | 23 | 301 | 4.8 | 4.8 | 0.00 | 0.00 | 0.00 | 24 | 1010.7 |
| 20260504171800 | 23 | 345 | 1.6 | 3.2 | 0.00 | 0.00 | 0.00 | 23 | 1010.4 |
| 20260504170755 | 23 | 343 | 0.0 | 0.0 | 0.00 | 0.00 | 0.00 | 24 | 1010.6 |
| 20260504150733 | 15 | 20 | 1.6 | 1.6 | 0.00 | 0.00 | 0.00 | 45 | 1011.3 |
| 20260504140731 | 9 | 346 | 1.6 | 1.6 | 0.00 | 0.00 | 0.00 | 66 | 1011.8 |
| 20260504130719 | 5 | 7 | 0.0 | 1.6 | 0.00 | 0.00 | 0.00 | 76 | 1011.5 |
| 20260504110652 | 2 | 343 | 0.0 | 0.0 | 0.00 | 0.00 | 0.00 | 79 | 1011.8 |
| 20260504081621 | 5 | 351 | 0.0 | 0.0 | 0.00 | 0.00 | 0.00 | 68 | 1013.0 |
| 20260504080620 | 6 | 345 | 0.0 | 0.0 | 0.00 | 0.00 | 0.00 | 66 | 1013.1 |